| time (UTC) | temp F | wind direction | speed knots | gust knots | rain 1hr in | rain 24hr in | rain mn in | humidity % | barometer mb |
| 20260504221205 | 62 | 331 | 3.5 | 8.7 | 0.00 | 0.09 | 0.09 | 39 | 1011.3 |
| 20260504220705 | 62 | 345 | 2.6 | 8.7 | 0.00 | 0.09 | 0.09 | 38 | 1011.2 |
| 20260504220205 | 63 | 351 | 3.5 | 13.9 | 0.00 | 0.09 | 0.09 | 37 | 1011.0 |
| 20260504215705 | 63 | 27 | 4.3 | 10.4 | 0.00 | 0.09 | 0.09 | 35 | 1010.7 |
| 20260504215205 | 63 | 350 | 4.3 | 10.4 | 0.00 | 0.09 | 0.09 | 36 | 1010.6 |
| 20260504214706 | 64 | 8 | 1.7 | 13.0 | 0.00 | 0.09 | 0.09 | 35 | 1010.5 |
| 20260504214205 | 65 | 17 | 6.1 | 12.2 | 0.00 | 0.09 | 0.09 | 33 | 1010.4 |
| 20260504213705 | 67 | 20 | 4.3 | 17.4 | 0.00 | 0.09 | 0.09 | 32 | 1010.3 |
| 20260504213205 | 67 | 56 | 2.6 | 7.0 | 0.00 | 0.09 | 0.09 | 27 | 1009.9 |
| 20260504212706 | 67 | 52 | 2.6 | 5.2 | 0.00 | 0.09 | 0.09 | 30 | 1010.0 |
| 20260504212205 | 67 | 116 | 0.9 | 4.3 | 0.00 | 0.09 | 0.09 | 32 | 1009.9 |
| 20260504211705 | 66 | 193 | 0.9 | 2.6 | 0.00 | 0.09 | 0.09 | 34 | 1010.0 |
| 20260504211205 | 65 | 193 | 0.0 | 0.0 | 0.00 | 0.09 | 0.09 | 35 | 1010.1 |
| 20260504210705 | 65 | 193 | 0.0 | 0.9 | 0.00 | 0.09 | 0.09 | 34 | 1010.2 |
| 20260504210205 | 65 | 193 | 0.9 | 2.6 | 0.00 | 0.09 | 0.09 | 37 | 1010.3 |
| 20260504204705 | 63 | 325 | 0.0 | 1.7 | 0.00 | 0.09 | 0.09 | 43 | 1010.4 |
| 20260504204206 | 62 | 325 | 0.9 | 2.6 | 0.00 | 0.09 | 0.09 | 44 | 1010.5 |
| 20260504203205 | 60 | 325 | 0.0 | 1.7 | 0.00 | 0.09 | 0.09 | 47 | 1011.0 |
| 20260504202705 | 60 | 250 | 0.9 | 2.6 | 0.00 | 0.09 | 0.09 | 51 | 1011.0 |
| 20260504202205 | 60 | 11 | 0.0 | 0.9 | 0.01 | 0.09 | 0.09 | 49 | 1011.1 |
| 20260504201706 | 59 | 11 | 1.7 | 4.3 | 0.01 | 0.09 | 0.09 | 50 | 1011.2 |
| 20260504201204 | 58 | 47 | 1.7 | 4.3 | 0.03 | 0.09 | 0.09 | 52 | 1011.3 |
| 20260504200705 | 58 | 36 | 1.7 | 5.2 | 0.07 | 0.09 | 0.09 | 59 | 1011.4 |
| 20260504200206 | 57 | 9 | 1.7 | 7.0 | 0.09 | 0.09 | 0.09 | 58 | 1011.4 |
| 20260504195205 | 56 | 101 | 0.9 | 1.7 | 0.09 | 0.09 | 0.09 | 72 | 1011.1 |
| 20260504194705 | 56 | 101 | 0.0 | 0.9 | 0.09 | 0.09 | 0.09 | 74 | 1011.4 |
| 20260504194205 | 55 | 101 | 0.0 | 2.6 | 0.09 | 0.09 | 0.09 | 72 | 1011.5 |
| 20260504193705 | 56 | 188 | 0.9 | 1.7 | 0.09 | 0.09 | 0.09 | 72 | 1011.6 |
| 20260504192705 | 56 | 191 | 0.9 | 4.3 | 0.09 | 0.09 | 0.09 | 67 | 1011.8 |
| 20260504191704 | 59 | 198 | 2.6 | 7.8 | 0.08 | 0.08 | 0.08 | 57 | 1011.5 |
| 20260504191205 | 61 | 182 | 2.6 | 13.0 | 0.06 | 0.06 | 0.06 | 50 | 1011.2 |
| 20260504190705 | 63 | 200 | 6.1 | 22.6 | 0.02 | 0.02 | 0.02 | 41 | 1011.1 |
| 20260504190206 | 65 | 168 | 4.3 | 12.2 | 0.00 | 0.00 | 0.00 | 35 | 1010.9 |
| 20260504185205 | 67 | 177 | 7.8 | 13.9 | 0.00 | 0.00 | 0.00 | 27 | 1010.6 |
| 20260504184705 | 68 | 173 | 1.7 | 7.8 | 0.00 | 0.00 | 0.00 | 24 | 1010.6 |
| 20260504184205 | 68 | 32 | 5.2 | 11.3 | 0.00 | 0.00 | 0.00 | 23 | 1010.6 |
| 20260504183705 | 69 | 5 | 1.7 | 4.3 | 0.00 | 0.00 | 0.00 | 21 | 1010.4 |
| 20260504183206 | 69 | 78 | 2.6 | 8.7 | 0.00 | 0.00 | 0.00 | 23 | 1010.4 |
| 20260504182705 | 69 | 53 | 4.3 | 6.1 | 0.00 | 0.00 | 0.00 | 21 | 1010.3 |
| 20260504181705 | 70 | 297 | 3.5 | 7.8 | 0.00 | 0.00 | 0.00 | 22 | 1010.3 |
| 20260504181205 | 70 | 352 | 4.3 | 7.8 | 0.00 | 0.00 | 0.00 | 21 | 1010.3 |
| 20260504180705 | 71 | 339 | 3.5 | 10.4 | 0.00 | 0.00 | 0.00 | 21 | 1010.4 |
| 20260504180205 | 71 | 14 | 4.3 | 11.3 | 0.00 | 0.00 | 0.00 | 21 | 1010.4 |
| 20260504175705 | 72 | 14 | 3.5 | 8.7 | 0.00 | 0.00 | 0.00 | 22 | 1010.4 |
| 20260504175204 | 73 | 350 | 5.2 | 12.2 | 0.00 | 0.00 | 0.00 | 21 | 1010.5 |
| 20260504174705 | 72 | 358 | 1.7 | 5.2 | 0.00 | 0.00 | 0.00 | 23 | 1010.5 |
| 20260504174205 | 72 | 355 | 1.7 | 7.8 | 0.00 | 0.00 | 0.00 | 23 | 1010.6 |
| 20260504173705 | 72 | 22 | 3.5 | 7.8 | 0.00 | 0.00 | 0.00 | 22 | 1010.7 |
| 20260504172705 | 72 | 48 | 2.6 | 5.2 | 0.00 | 0.00 | 0.00 | 23 | 1011.0 |
| 20260504172205 | 72 | 34 | 2.6 | 5.2 | 0.00 | 0.00 | 0.00 | 23 | 1010.9 |
| 20260504171704 | 71 | 355 | 0.9 | 4.3 | 0.00 | 0.00 | 0.00 | 24 | 1011.0 |
| 20260504171205 | 71 | 71 | 1.7 | 4.3 | 0.00 | 0.00 | 0.00 | 24 | 1011.1 |
| 20260504160204 | 65 | 223 | 0.9 | 2.6 | 0.00 | 0.00 | 0.00 | 29 | 1011.8 |
| 20260504150705 | 60 | 224 | 0.9 | 2.6 | 0.00 | 0.00 | 0.00 | 33 | 1012.0 |
| 20260504150204 | 59 | 285 | 0.9 | 2.6 | 0.00 | 0.00 | 0.00 | 35 | 1012.0 |
| 20260504141204 | 53 | 254 | 0.0 | 0.0 | 0.00 | 0.00 | 0.00 | 44 | 1012.1 |
| 20260504140704 | 52 | 254 | 0.0 | 0.0 | 0.00 | 0.00 | 0.00 | 43 | 1012.1 |
| 20260504140205 | 52 | 254 | 0.0 | 0.0 | 0.00 | 0.00 | 0.00 | 44 | 1012.1 |
| 20260504130705 | 45 | 46 | 0.0 | 1.7 | 0.00 | 0.00 | 0.00 | 59 | 1012.0 |
| 20260504130205 | 45 | 46 | 0.0 | 0.9 | 0.00 | 0.00 | 0.00 | 58 | 1011.9 |
| 20260504110704 | 42 | 46 | 0.0 | 0.0 | 0.00 | 0.00 | 0.00 | 59 | 1011.8 |
| 20260504110204 | 42 | 46 | 0.0 | 0.0 | 0.00 | 0.00 | 0.00 | 59 | 1011.9 |
| 20260504100204 | 43 | 46 | 0.0 | 0.0 | 0.00 | 0.00 | 0.00 | 57 | 1012.2 |
| 20260504081704 | 50 | 46 | 0.0 | 0.0 | 0.00 | 0.00 | 0.00 | 45 | 1012.8 |
| 20260504081204 | 51 | 46 | 0.0 | 0.0 | 0.00 | 0.00 | 0.00 | 45 | 1012.8 |
| 20260504080204 | 52 | 46 | 0.0 | 0.0 | 0.00 | 0.00 | 0.00 | 43 | 1012.8 |
| 20260504070204 | 56 | 46 | 0.0 | 0.9 | 0.00 | 0.00 | 0.00 | 34 | 1013.3 |
| 20260504060204 | 59 | 265 | 0.9 | 2.6 | 0.00 | 0.00 | 0.00 | 30 | 1012.9 |
| 20260504050704 | 61 | 211 | 2.6 | 8.7 | 0.00 | 0.00 | 0.00 | 29 | 1013.0 |
| 20260504050203 | 61 | 238 | 2.6 | 7.8 | 0.00 | 0.00 | 0.00 | 29 | 1013.1 |
| 20260504045704 | 61 | 241 | 1.7 | 7.0 | 0.00 | 0.00 | 0.00 | 29 | 1013.1 |
| 20260504045204 | 61 | 295 | 0.9 | 7.0 | 0.00 | 0.00 | 0.00 | 29 | 1013.2 |
| 20260504044704 | 61 | 273 | 0.9 | 4.3 | 0.00 | 0.00 | 0.00 | 29 | 1013.2 |
| 20260504044204 | 61 | 228 | 0.9 | 5.2 | 0.00 | 0.00 | 0.00 | 29 | 1013.2 |
| 20260504043704 | 61 | 272 | 0.9 | 5.2 | 0.00 | 0.00 | 0.00 | 29 | 1013.2 |
| 20260504042704 | 62 | 238 | 0.0 | 2.6 | 0.00 | 0.00 | 0.00 | 29 | 1013.3 |
| 20260504042204 | 62 | 238 | 0.9 | 2.6 | 0.00 | 0.00 | 0.00 | 29 | 1013.3 |
| 20260504041204 | 62 | 235 | 0.9 | 5.2 | 0.00 | 0.00 | 0.00 | 29 | 1013.3 |
| 20260504040704 | 62 | 248 | 0.9 | 4.3 | 0.00 | 0.00 | 0.00 | 29 | 1013.4 |
| 20260504035704 | 62 | 274 | 1.7 | 6.1 | 0.00 | 0.00 | 0.00 | 29 | 1013.5 |
| 20260504034703 | 62 | 243 | 1.7 | 7.0 | 0.00 | 0.00 | 0.00 | 29 | 1013.6 |
| 20260504034204 | 61 | 255 | 1.7 | 7.0 | 0.00 | 0.00 | 0.00 | 29 | 1013.6 |
| 20260504033704 | 61 | 266 | 1.7 | 4.3 | 0.00 | 0.00 | 0.00 | 30 | 1013.6 |
| 20260504033203 | 61 | 197 | 0.9 | 4.3 | 0.00 | 0.00 | 0.00 | 30 | 1013.6 |
| 20260504032703 | 61 | 243 | 0.9 | 2.6 | 0.00 | 0.00 | 0.00 | 31 | 1013.6 |
| 20260504032203 | 61 | 161 | 0.0 | 0.9 | 0.00 | 0.00 | 0.00 | 31 | 1013.6 |
| 20260504031204 | 61 | 161 | 0.0 | 1.7 | 0.00 | 0.00 | 0.00 | 32 | 1013.6 |
| 20260504025704 | 61 | 153 | 0.0 | 2.6 | 0.00 | 0.00 | 0.00 | 32 | 1013.6 |
| 20260504024704 | 62 | 101 | 0.0 | 1.7 | 0.00 | 0.00 | 0.00 | 32 | 1013.5 |
| 20260504024204 | 62 | 101 | 0.0 | 1.7 | 0.00 | 0.00 | 0.00 | 31 | 1013.4 |
| 20260504023704 | 62 | 101 | 0.0 | 0.0 | 0.00 | 0.00 | 0.00 | 31 | 1013.5 |
| 20260504023204 | 62 | 101 | 0.0 | 1.7 | 0.00 | 0.00 | 0.00 | 31 | 1013.6 |
| 20260504022704 | 63 | 101 | 0.0 | 0.9 | 0.00 | 0.00 | 0.00 | 31 | 1013.6 |
| 20260504022204 | 63 | 101 | 0.0 | 0.9 | 0.00 | 0.00 | 0.00 | 30 | 1013.6 |
| 20260504021706 | 64 | 101 | 0.0 | 0.0 | 0.00 | 0.00 | 0.00 | 30 | 1013.6 |
| 20260504021205 | 64 | 101 | 0.0 | 0.9 | 0.00 | 0.00 | 0.00 | 30 | 1013.6 |
| 20260504020706 | 64 | 101 | 0.0 | 0.0 | 0.00 | 0.00 | 0.00 | 29 | 1013.4 |
| 20260504015706 | 65 | 101 | 0.0 | 0.9 | 0.00 | 0.00 | 0.00 | 27 | 1013.4 |
| 20260504015205 | 65 | 101 | 0.9 | 1.7 | 0.00 | 0.00 | 0.00 | 27 | 1013.4 |
| 20260504014705 | 65 | 101 | 0.0 | 0.0 | 0.00 | 0.00 | 0.00 | 27 | 1013.3 |
| 20260504013705 | 65 | 101 | 0.0 | 0.9 | 0.00 | 0.00 | 0.00 | 27 | 1013.3 |
| 20260504013206 | 65 | 101 | 0.9 | 2.6 | 0.00 | 0.00 | 0.00 | 26 | 1013.2 |
| 20260504012706 | 66 | 99 | 0.9 | 2.6 | 0.00 | 0.00 | 0.00 | 26 | 1013.3 |
| 20260504012206 | 66 | 99 | 1.7 | 2.6 | 0.00 | 0.00 | 0.00 | 26 | 1013.3 |
| 20260504011706 | 66 | 101 | 0.0 | 2.6 | 0.00 | 0.00 | 0.00 | 26 | 1013.3 |
| 20260504011206 | 66 | 65 | 0.9 | 4.3 | 0.00 | 0.00 | 0.00 | 26 | 1013.3 |
| 20260504010205 | 66 | 67 | 0.0 | 2.6 | 0.00 | 0.00 | 0.00 | 26 | 1013.3 |
| 20260504005705 | 67 | 67 | 0.0 | 2.6 | 0.00 | 0.00 | 0.00 | 25 | 1013.3 |
| 20260504005206 | 67 | 67 | 0.9 | 2.6 | 0.00 | 0.00 | 0.00 | 25 | 1013.4 |
| 20260504004705 | 67 | 67 | 0.9 | 2.6 | 0.00 | 0.00 | 0.00 | 25 | 1013.4 |
| 20260504004206 | 67 | 67 | 1.7 | 2.6 | 0.00 | 0.00 | 0.00 | 25 | 1013.4 |
| 20260504003705 | 67 | 66 | 1.7 | 5.2 | 0.00 | 0.00 | 0.00 | 25 | 1013.4 |
| 20260504003206 | 67 | 23 | 1.7 | 5.2 | 0.00 | 0.00 | 0.00 | 25 | 1013.5 |
| 20260504002705 | 67 | 21 | 1.7 | 7.0 | 0.00 | 0.00 | 0.00 | 25 | 1013.5 |
| 20260504002205 | 67 | 36 | 2.6 | 4.3 | 0.00 | 0.00 | 0.00 | 24 | 1013.5 |
| 20260504001705 | 67 | 57 | 1.7 | 4.3 | 0.00 | 0.00 | 0.00 | 24 | 1013.5 |
| 20260504001206 | 67 | 55 | 1.7 | 5.2 | 0.00 | 0.00 | 0.00 | 24 | 1013.5 |
| 20260504000205 | 67 | 47 | 1.7 | 2.6 | 0.00 | 0.00 | 0.00 | 24 | 1013.6 |
| 20260503235705 | 67 | 355 | 0.0 | 2.6 | 0.00 | 0.00 | 0.00 | 26 | 1013.6 |
| 20260503235206 | 67 | 347 | 0.9 | 4.3 | 0.00 | 0.00 | 0.00 | 25 | 1013.8 |
| 20260503234706 | 67 | 5 | 0.9 | 5.2 | 0.00 | 0.00 | 0.00 | 25 | 1013.7 |
| 20260503234205 | 67 | 5 | 1.7 | 7.8 | 0.00 | 0.00 | 0.00 | 24 | 1013.5 |
| 20260503233706 | 68 | 53 | 1.7 | 2.6 | 0.00 | 0.00 | 0.00 | 24 | 1013.3 |
| 20260503233205 | 68 | 10 | 1.7 | 7.8 | 0.00 | 0.00 | 0.00 | 24 | 1013.2 |
| 20260503232705 | 68 | 24 | 0.9 | 11.3 | 0.00 | 0.00 | 0.00 | 23 | 1013.2 |
| 20260503232205 | 69 | 7 | 6.1 | 12.2 | 0.00 | 0.00 | 0.00 | 22 | 1013.3 |
| 20260503231705 | 69 | 358 | 2.6 | 6.1 | 0.00 | 0.00 | 0.00 | 21 | 1013.2 |
| 20260503231206 | 69 | 196 | 0.0 | 1.7 | 0.00 | 0.00 | 0.00 | 22 | 1013.1 |
| 20260503230705 | 69 | 196 | 0.0 | 1.7 | 0.00 | 0.00 | 0.00 | 21 | 1013.1 |
| 20260503230205 | 69 | 196 | 0.9 | 5.2 | 0.00 | 0.00 | 0.00 | 21 | 1013.3 |
| 20260503225705 | 69 | 216 | 1.7 | 5.2 | 0.00 | 0.00 | 0.00 | 21 | 1013.4 |
| 20260503224706 | 69 | 347 | 0.9 | 2.6 | 0.00 | 0.00 | 0.00 | 21 | 1013.3 |
| 20260503224205 | 69 | 5 | 0.9 | 5.2 | 0.00 | 0.00 | 0.00 | 21 | 1013.3 |
| 20260503223705 | 69 | 270 | 0.9 | 2.6 | 0.00 | 0.00 | 0.00 | 20 | 1013.2 |
| 20260503223205 | 70 | 304 | 1.7 | 2.6 | 0.00 | 0.00 | 0.00 | 21 | 1013.2 |
| 20260503222705 | 70 | 243 | 0.0 | 5.2 | 0.00 | 0.00 | 0.00 | 20 | 1013.2 |
| 20260503222206 | 70 | 342 | 1.7 | 7.0 | 0.00 | 0.00 | 0.00 | 20 | 1013.4 |
| 20260503221706 | 71 | 338 | 3.5 | 10.4 | 0.00 | 0.00 | 0.00 | 18 | 1013.5 |